Capital City Airport Lansing US
ICAO: KLAN
IATA: LAN
Category: Medium
Scheduled Services: Yes

Elevation: 861 ft
TransAlt. 18000 ft.

Airport Communications:
LANSING APP/DEP:118.65
ATIS:119.75
CLNC DEL:123.675
GND:121.9
LANSING RDO:122.2
LANSING TWR:119.9
UNICOM:122.95

KLAN Zoom In..

If you have problems with the map follow the link
https://www.worldairports.se/pages/airport.php?
ICAO=KLAN

Runways:

(A) RW 06 length 5002 ft width 120 ft
---- / hdg 58

(B) RW 10L length 3601 ft width 75 ft
---- / hdg 96

(C) RW 10R length 8506 ft width 150 ft
ILS 111.70 / hdg 96

(D) RW 24 length 5002 ft width 120 ft
---- / hdg 238

(E) RW 28L length 8506 ft width 150 ft
ILS 110.10 / hdg 276

(F) RW 28R length 3601 ft width 75 ft
---- / hdg 276

Location; KLAN
Day. 18 / Time. 21.53 Zulu
* Altimeter: 30.18
* Temperature: -03° c. -26.6°f.
* Wind from: 340° Speed 06 kn.
Dewpoint: -08° c.
Visibility: 10 Statute Miles.
Clouds: Overcast 1000 ft.

KLAN 182153Z 34006KT 10SM OVC100 M03/M08 A3018 RMK AO2 SLP233 T10281083


Wind From 340°
Speed 06 kn.

 
 
jpsmedia.com for Web Design worldairports.se 2019   terms of use